User: anonymous   Login
Location: Unspecified
(0.0000°N, 0.0000°E)
Time: 16:35:50
(UTC+00:00)
Language:

Tiros 1 despin weight - Orbit

View from above orbital plane
View from above orbital plane
View from above satellite
View from above satellite

Ground track
Ground track

The orbit data is extracted from the following two-line orbital elements,

1   115U 60002D   18347.22647126 -.00000033  00000-0  23308-4 0  9995
2   115  48.1680  49.2438 0034918 334.0723  25.8440 14.83374774130985
Epoch (UTC): 13 December 2018 05:26:07
Eccentricity: 0.0034918
inclination: 48.1680°
perigee height: 594 km
apogee height: 643 km
right ascension of ascending node: 49.2438°
argument of perigee: 334.0723°
revolutions per day: 14.83374774
mean anomaly at epoch: 25.8440°
orbit number at epoch: 13098

The dashed part of the orbit path shows where the satellite is in the earth's shadow,  

DLR